Location: Newark
(43.0000°N, 1.6781°W)
Time: 20:07:59
(UTC+00:00)

Transit 2A Rocket - Pass Details

Date: 20 April 2021
Orbit: 594 x 908 km, 66.7° (Epoch: 05 May)

Event Time Altitude Azimuth Distance (km) Brightness Sun altitude
Rises 22:49:53 0° 338° (NNW) 2,873 9.1 -32.5°
Reaches altitude 10° 22:52:28 10° 353° (N) 1,993 8.0 -32.7°
Enters shadow 22:54:44 21° 21° (NNE) 1,440 6.8 -32.8°
